Weather History for KVBT - December, 2011

Change the Weather History Date:

Sunday, December 18, 2011

  Actual Average (KFYV) Record (KFYV)
Temperature  
Mean Temperature 42 °F 37 °F  
Max Temperature 55 °F 47 °F 70 °F (1962)
Min Temperature 28 °F 26 °F 2 °F (1964)
Degree Days  
Heating Degree Days 24 28  
Month to date heating degree days 475  
Since 1 July heating degree days 1304  
Moisture  
Dew Point 31 °F    
Average Humidity 67    
Maximum Humidity 93    
Minimum Humidity 44    
Precipitation  
Precipitation 0.00 in 0.10 in - ()
Month to date precipitation 1.97  
Year to date precipitation 47.24  
Sea Level Pressure  
Sea Level Pressure 30.24 in    
Wind  
Wind Speed 5 mph (South)    
Max Wind Speed 14 mph    
Max Gust Speed 18 mph    
Visibility 10 miles    
Events      
T = Trace of Precipitation, MM = Missing Value Source: NWS Daily Summary

Daily Weather History Graph

Daily Weather History Graph

Search for Another Location

Airport or City:

Trip Planner

Search our weather history database for the weather conditions in past years. The results will help you decide how hot, cold, wet, or windy it might be!

Date:

Astronomy

Dec. 18, 2011 Rise Set
Actual Time 7:22 AM CST 5:04 PM CST
Civil Twilight 6:54 AM CST 5:32 PM CST
Nautical Twilight 6:21 AM CST 6:05 PM CST
Astronomical Twilight 5:50 AM CST 6:36 PM CST
Moon 12:33 AM CST (12/18) 12:22 PM CST (12/18)
Length of Visible Light 10h 38m
Length of Day
9h 41m
Last Quarter, 42% of the Moon is Illuminated
Dec 18
Last Quarter
Dec 24
New
Jan 1
First Quarter
Jan 9
Full
Jan 16
Last Quarter

Hourly Weather History & Observations

Time (CST) Temp. Windchill Dew Point Humidity Pressure Visibility Wind Dir Wind Speed Gust Speed Precip Events Conditions
12:15 AM 35.6 °F 32.8 °F 28.4 °F 75% 30.34 in 10.0 mi South 3.5 mph - N/A   Clear
12:35 AM 33.8 °F - 28.4 °F 81% 30.34 in 10.0 mi Calm Calm - N/A   Clear
12:55 AM 33.8 °F - 28.4 °F 81% 30.34 in 10.0 mi Calm Calm - N/A   Clear
1:15 AM 32.0 °F 28.7 °F 26.6 °F 80% 30.34 in 10.0 mi SW 3.5 mph - N/A   Clear
1:35 AM 32.0 °F - 28.4 °F 87% 30.35 in 9.0 mi Calm Calm - N/A   Clear
1:55 AM 33.8 °F - 30.2 °F 87% 30.34 in 9.0 mi Calm Calm - N/A   Clear
2:15 AM 32.0 °F 28.7 °F 28.4 °F 87% 30.33 in 9.0 mi South 3.5 mph - N/A   Clear
2:55 AM 32.0 °F 27.5 °F 28.4 °F 87% 30.33 in 7.0 mi SSE 4.6 mph - N/A   Clear
3:15 AM 30.2 °F - 28.4 °F 93% 30.33 in 6.0 mi Calm Calm - N/A   Clear
3:35 AM 30.2 °F 26.7 °F 26.6 °F 86% 30.33 in 7.0 mi South 3.5 mph - N/A   Clear
3:55 AM 28.4 °F 23.3 °F 26.6 °F 93% 30.32 in 7.0 mi SE 4.6 mph - N/A   Clear
4:15 AM 30.2 °F 26.7 °F 28.4 °F 93% 30.31 in 8.0 mi SSE 3.5 mph - N/A   Clear
4:35 AM 30.2 °F 26.7 °F 26.6 °F 86% 30.31 in 7.0 mi SSE 3.5 mph - N/A   Clear
4:55 AM 30.2 °F 26.7 °F 26.6 °F 86% 30.31 in 10.0 mi SSE 3.5 mph - N/A   Clear
5:15 AM 30.2 °F 26.7 °F 26.6 °F 86% 30.31 in 8.0 mi SW 3.5 mph - N/A   Clear
5:35 AM 28.4 °F 24.6 °F 26.6 °F 93% 30.31 in 9.0 mi South 3.5 mph - N/A   Clear
5:55 AM 28.4 °F 23.3 °F 24.8 °F 86% 30.31 in 9.0 mi SSE 4.6 mph - N/A   Clear
6:15 AM 30.2 °F 26.7 °F 26.6 °F 86% 30.32 in 10.0 mi SSW 3.5 mph - N/A   Clear
6:35 AM 30.2 °F 26.7 °F 26.6 °F 86% 30.32 in 10.0 mi South 3.5 mph - N/A   Clear
6:55 AM 30.2 °F 26.7 °F 26.6 °F 86% 30.32 in 10.0 mi South 3.5 mph - N/A   Clear
7:15 AM 30.2 °F 26.7 °F 26.6 °F 86% 30.32 in 10.0 mi South 3.5 mph - N/A   Clear
7:35 AM 28.4 °F 23.3 °F 24.8 °F 86% 30.31 in 10.0 mi South 4.6 mph - N/A   Clear
7:55 AM 30.2 °F 26.7 °F 26.6 °F 86% 30.31 in 10.0 mi SSE 3.5 mph - N/A   Clear
8:15 AM 33.8 °F 30.8 °F 28.4 °F 81% 30.31 in 10.0 mi South 3.5 mph - N/A   Clear
8:35 AM 37.4 °F 34.9 °F 28.4 °F 70% 30.31 in 10.0 mi South 3.5 mph - N/A   Clear
8:55 AM 39.2 °F 35.9 °F 30.2 °F 70% 30.31 in 10.0 mi South 4.6 mph - N/A   Clear
9:15 AM 42.8 °F 38.6 °F 35.6 °F 76% 30.30 in 10.0 mi South 6.9 mph - N/A   Clear
9:35 AM 44.6 °F 41.4 °F 33.8 °F 66% 30.30 in 10.0 mi South 5.8 mph - N/A   Clear
9:55 AM 48.2 °F - 35.6 °F 62% 30.30 in 10.0 mi South 8.1 mph - N/A   Clear
10:15 AM 48.2 °F - 35.6 °F 62% 30.30 in 10.0 mi South 5.8 mph - N/A   Clear
10:35 AM 50.0 °F - 37.4 °F 62% 30.29 in 10.0 mi SSW 5.8 mph - N/A   Clear
10:55 AM 48.2 °F - 35.6 °F 62% 30.29 in 10.0 mi SSW 6.9 mph - N/A   Clear
11:15 AM 50.0 °F - 35.6 °F 58% 30.29 in 10.0 mi SSW 8.1 mph - N/A   Mostly Cloudy
11:35 AM 51.8 °F - 37.4 °F 58% 30.27 in 10.0 mi SW 9.2 mph - N/A   Overcast
12:15 PM 53.6 °F - 35.6 °F 51% 30.24 in 10.0 mi SSW 8.1 mph - N/A   Overcast
12:35 PM 53.6 °F - 35.6 °F 51% 30.23 in 10.0 mi SSW 10.4 mph - N/A   Overcast
1:15 PM 55.4 °F - 35.6 °F 47% 30.20 in 10.0 mi SSW 9.2 mph - N/A   Mostly Cloudy
1:35 PM 55.4 °F - 35.6 °F 47% 30.18 in 10.0 mi SSW 8.1 mph - N/A   Mostly Cloudy
1:55 PM 55.4 °F - 33.8 °F 44% 30.17 in 10.0 mi SW 11.5 mph - N/A   Partly Cloudy
2:15 PM 55.4 °F - 33.8 °F 44% 30.16 in 10.0 mi SW 10.4 mph - N/A   Mostly Cloudy
2:35 PM 55.4 °F - 33.8 °F 44% 30.16 in 10.0 mi SW 11.5 mph - N/A   Overcast
2:55 PM 53.6 °F - 33.8 °F 47% 30.15 in 10.0 mi SSW 10.4 mph - N/A   Overcast
3:15 PM 53.6 °F - 35.6 °F 51% 30.15 in 10.0 mi SW 8.1 mph - N/A   Overcast
3:35 PM 53.6 °F - 33.8 °F 47% 30.15 in 10.0 mi SSW 11.5 mph - N/A   Overcast
3:55 PM 53.6 °F - 33.8 °F 47% 30.14 in 10.0 mi SSW 13.8 mph - N/A   Overcast
4:35 PM 51.8 °F - 33.8 °F 50% 30.13 in 10.0 mi SSW 9.2 mph - N/A   Overcast
5:15 PM 51.8 °F - 33.8 °F 50% 30.13 in 10.0 mi South 10.4 mph - N/A   Overcast
5:35 PM 51.8 °F - 33.8 °F 50% 30.13 in 10.0 mi South 8.1 mph - N/A   Overcast
5:55 PM 51.8 °F - 33.8 °F 50% 30.12 in 10.0 mi South 6.9 mph - N/A   Overcast
6:15 PM 51.8 °F - 33.8 °F 50% 30.11 in 10.0 mi South 5.8 mph - N/A   Overcast
6:35 PM 51.8 °F - 33.8 °F 50% 30.11 in 10.0 mi South 9.2 mph - N/A   Overcast
6:55 PM 51.8 °F - 33.8 °F 50% 30.10 in 10.0 mi South 9.2 mph - N/A   Overcast
7:15 PM 51.8 °F - 33.8 °F 50% 30.09 in 10.0 mi South 10.4 mph 16.1 mph N/A   Overcast
7:55 PM 51.8 °F - 33.8 °F 50% 30.09 in 10.0 mi South 10.4 mph 18.4 mph N/A   Overcast
8:15 PM 51.8 °F - 33.8 °F 50% 30.08 in 10.0 mi South 8.1 mph - N/A   Overcast
8:35 PM 50.0 °F - 33.8 °F 54% 30.08 in 10.0 mi South 9.2 mph - N/A   Mostly Cloudy
8:55 PM 48.2 °F - 32.0 °F 54% 30.08 in 10.0 mi South 8.1 mph - N/A   Clear
9:15 PM 48.2 °F - 33.8 °F 58% 30.07 in 10.0 mi South 9.2 mph - N/A   Partly Cloudy
9:35 PM 48.2 °F - 33.8 °F 58% 30.06 in 10.0 mi South 8.1 mph - N/A   Mostly Cloudy
9:55 PM 48.2 °F - 33.8 °F 58% 30.06 in 10.0 mi South 11.5 mph - N/A   Mostly Cloudy
10:15 PM 48.2 °F - 33.8 °F 58% 30.05 in 10.0 mi South 10.4 mph - N/A   Partly Cloudy
10:35 PM 48.2 °F - 33.8 °F 58% 30.05 in 10.0 mi South 10.4 mph 17.3 mph N/A   Clear
11:35 PM 48.2 °F - 32.0 °F 54% 30.04 in 10.0 mi South 6.9 mph - N/A   Clear
11:55 PM 48.2 °F - 32.0 °F 54% 30.04 in 10.0 mi South 8.1 mph - N/A   Mostly Cloudy